Location: Pagani
(40.7500°N, 14.6167°E)
Time: 08:31:29
(UTC+00:00)

Daily predictions for brighter satellites

Satellite Brightness Start Highest point End
(mag) Time Altitude Azimuth Time Altitude Azimuth Time Altitude Azimuth
NOSS 3-3 (C) 3.7 18:40:10 10° SSW 18:44:58 50° ESE 18:50:34 10° NE
CSL-04 Debris 4.2 18:39:45 10° SSE 18:45:08 72° ENE 18:50:34 10° N
Cosmos 1725 Rocket 4.2 18:41:29 10° SSE 18:47:33 55° E 18:53:37 10° NNE
SPOT 5 2.7 18:43:16 10° SSE 18:47:34 83° WSW 18:52:00 10° NNW
GEOS 3 Rocket 4.2 18:42:32 10° ESE 18:47:35 47° NE 18:52:44 10° NNW
Gbstr 26 Del rocket 3.3 18:43:36 10° NW 18:48:59 88° NE 18:53:20 10° SE
ADEOS 4.4 18:45:09 10° SE 18:49:48 34° ENE 18:54:28 10° N
USA 215 3.7 18:43:59 10° SSE 18:50:23 59° SW 18:56:51 10° NW
Feng Yun 1-1 Rocket 4.3 18:49:09 10° SSE 18:54:24 58° ENE 18:59:45 10° N
Cosmos 2322 Rocket 4.3 18:56:59 10° NNE 18:59:25 13° NE 19:01:50 10° ENE
DEBRIS 4.1 18:57:14 10° W 18:59:32 35° N 19:04:14 10° ENE
Meteor 2-3 Rocket 4.1 18:54:22 10° NNW 18:59:59 67° W 19:05:37 10° S
Meteor 1-31 Rocket 2.4 18:56:45 10° SSE 19:00:12 85° ENE 19:03:41 10° N
Cosmos 2082 Rocket 2.2 18:54:51 10° SSW 19:00:34 85° ESE 19:06:18 10° NNE
Cosmos 2173 Rocket 4.3 18:54:55 10° SSW 19:01:02 74° W 19:07:17 10° N
Cosmos 2016 Rocket 4.0 18:55:15 10° S 19:01:25 65° E 19:07:32 10° NNE
Cosmos 1850 Rocket 4.3 18:57:23 10° NNW 19:02:32 69° WSW 19:07:39 10° S
Tsikada Rocket 4.5 18:57:09 10° N 19:02:57 41° ENE 19:08:37 10° SE
DELTA 2 R/B (1) 3.6 19:01:17 10° W 19:06:52 80° S 19:12:26 10° E
Cosmos 2369 4.0 19:03:32 10° NNW 19:09:11 56° ENE 19:14:07 13° SE
CZ-4C R/B 4.4 19:07:13 10° W 19:10:41 24° NW 19:14:52 10° NNE
Cosmos 1697 Rocket 4.4 19:09:17 10° NW 19:14:03 29° WSW 19:18:48 10° SSW
ASTEX 1 4.2 19:09:51 10° S 19:14:40 53° W 19:19:32 10° NNW
PAYLOAD B 4.2 19:11:00 10° SSE 19:16:30 82° ENE 19:22:04 10° NNW
MOS 1 4.3 19:12:15 10° SSE 19:17:55 85° ENE 19:23:39 10° NNW
Cosmos 2151 4.4 19:18:16 10° NNE 19:21:22 20° ENE 19:23:01 16° ESE
Cosmos 1782 2.9 19:22:29 10° SSW 19:25:57 62° W 19:29:27 10° N
Cosmos 1626 Rocket 4.4 19:22:25 10° N 19:26:25 33° ENE 19:28:45 20° SE
Spot 2 Rocket 3.9 19:22:56 17° SE 19:26:36 47° ENE 19:31:25 10° N
BREEZE-M DEB (TANK) 4.3 19:23:10 10° WNW 19:26:45 39° SSW 19:35:03 14° SSE
ATLAS 3B R/B 4.0 19:20:38 10° NW 19:27:32 38° WSW 19:33:59 10° S
ERS-1 Rocket 3.1 19:24:42 10° S 19:29:41 75° WSW 19:34:43 10° NNW
SL-16 R/B 3.1 19:26:13 10° N 19:31:25 35° ENE 19:34:53 19° ESE
USA 305 4.1 19:29:53 10° WNW 19:33:21 28° SW 19:35:39 15° S
MetOp-B 4.3 19:31:55 11° S 19:37:09 77° WSW 19:42:32 10° NNW
Cosmos 2061 Rocket 4.0 19:34:35 10° S 19:40:47 83° E 19:47:06 10° N
CZ-4 R/B 3.0 19:39:09 10° SSW 19:42:15 27° W 19:45:22 10° NW
USA 186 1.9 19:42:50 37° E 19:43:10 39° ENE 19:45:46 10° N
Cosmos 2228 3.6 19:39:40 10° SSW 19:43:41 53° W 19:47:43 10° N
COSMOS 2406 3.2 19:38:43 10° SSW 19:44:28 90° ESE 19:50:15 10° NNE
Cosmos 1980 Rocket 3.4 19:40:22 10° NW 19:45:34 37° WSW 19:50:42 10° S
Cosmos 1933 3.6 19:45:00 30° SE 19:46:16 41° E 19:49:52 10° NNE
Cosmos 1375 Rocket 4.5 19:40:09 10° SSW 19:46:35 81° ESE 19:53:11 10° NNE
Cosmos 1992 Rocket 4.4 19:43:37 10° SSW 19:48:46 64° WNW 19:53:57 10° NNE
Cosmos 1461 3.1 19:45:16 10° SW 19:48:55 61° NW 19:52:35 10° NNE
SL-08 R/B 3.5 19:45:13 10° N 19:49:59 72° WNW 19:54:39 10° SSW
Terra 2.5 19:45:45 11° S 19:50:11 51° W 19:54:46 10° NNW
Cosmos 2084 Rocket 4.0 19:46:17 10° NW 19:50:22 49° WSW 19:52:40 24° S
ISS -0.7 19:48:47 10° NNW 19:50:26 13° N 19:52:05 10° NNE
Cosmos 1743 4.4 19:49:11 10° NW 19:51:34 21° W 19:53:56 10° SW
Delta 2 Rocket 3.7 19:51:15 10° WSW 19:53:37 28° SSW 19:53:37 28° SSW
Okean O Rocket 1.5 19:52:31 27° SSE 19:54:47 82° ENE 19:59:06 10° N
Meteor 1-20 Rocket 4.3 19:50:48 10° N 19:56:22 60° ENE 19:59:21 28° SSE
Cosmos 2333 Rocket 2.5 19:56:14 10° NNW 20:01:50 54° ENE 20:04:29 30° SE
Cosmos 1544 Rocket 3.5 19:59:08 20° S 20:02:10 88° W 20:06:30 10° N
Chandra Rocket (1) 4.3 19:39:22 10° WSW 20:03:01 44° SSW 20:07:14 26° SE
Cosmos 1437 Rocket 2.4 20:03:18 34° S 20:04:43 90° W 20:08:19 10° N
CZ-4B R/B 4.3 20:05:20 11° SSW 20:10:27 42° W 20:15:46 10° NNW
Cosmos 2360 Rocket 3.0 20:06:32 10° N 20:11:49 38° ENE 20:13:59 28° ESE
Okean 1-7 Rocket 4.5 20:08:19 10° NNE 20:12:23 33° ENE 20:13:00 31° E
Milstar 3 4.3 20:08:09 10° WSW 20:13:20 22° SSW 20:15:14 20° S
Cosmos 1891 Rocket 4.3 20:09:32 19° S 20:14:07 85° E 20:20:11 10° N
Okean-O 3.0 20:14:52 28° SSW 20:16:58 58° W 20:21:17 10° NNW
CZ-2C R/B 4.0 20:21:09 19° NE 20:21:09 19° NE 20:22:26 10° NNE
Cosmos 1486 Rocket 4.3 20:17:12 10° N 20:22:23 55° ENE 20:23:55 40° ESE
Cosmos 1758 Rocket 4.0 20:19:43 10° NNW 20:24:04 59° W 20:25:51 33° SSW
Cosmos 2219 Rocket 3.4 20:19:31 10° N 20:24:29 30° ENE 20:26:24 25° E
USA 245 4.2 20:25:40 35° SSE 20:28:18 88° WSW 20:33:58 10° NNW
Cosmos 540 Rocket 3.7 20:28:06 43° ESE 20:28:31 44° ESE 20:33:23 10° NNE
IRS-1C Rocket 4.1 20:27:08 43° SE 20:28:45 67° ENE 20:34:00 10° N
Nadezhda 4 Rocket 4.1 20:27:32 10° N 20:33:35 58° E 20:35:26 42° SE
Meteor 1-25 Rocket 4.1 20:28:02 10° N 20:33:42 88° W 20:35:42 42° S
Cosmos 1825 Rocket 3.8 20:32:32 10° N 20:36:47 49° E 20:36:52 49° E
Cosmos 1805 3.4 20:33:59 10° N 20:36:34 52° N 20:36:34 52° N
Meteor 2-10 4.2 20:35:41 10° N 20:41:25 69° E 20:42:49 50° SE
Cosmos 2322 Rocket 2.2 20:38:46 10° NNW 20:44:27 74° ENE 20:45:49 52° SE
Cosmos 1602 Rocket 3.9 20:43:46 10° NNW 20:48:01 58° W 20:48:44 50° SW
CZ-4B R/B 3.3 20:49:59 45° W 20:49:59 45° W 20:53:00 10° NNW
NOSS 3-4 (A) 3.9 20:45:08 10° NNW 20:52:07 82° ENE 20:55:06 42° SE
NOSS 3-4 (C) 3.9 20:45:46 10° NNW 20:52:46 81° NE 20:55:45 43° SE
Cosmos 2058 Rocket 4.3 20:53:53 29° ENE 20:53:53 29° ENE 20:56:40 10° NNE
DELTA 2 R/B (1) 3.5 20:47:38 10° W 20:53:09 64° SSW 20:53:40 61° SSE
Cosmos 2098 Rocket 3.7 20:53:24 38° SW 20:54:55 55° W 20:59:08 10° N
Cosmos 2026 Rocket 4.3 20:49:42 10° N 20:55:53 50° ENE 20:57:08 44° ESE
Cosmos 2151 4.4 20:54:36 10° NNW 20:58:07 28° W 20:59:05 25° WSW
Ariane Rocket 3.2 20:59:02 51° SSW 21:00:02 63° WSW 21:05:04 10° NNW
Cosmos 1076 Rocket 3.7 20:56:35 10° N 21:00:20 60° NE 21:00:20 60° NE
Meteor 1-26 Rocket 4.0 21:09:42 68° SE 21:10:08 71° E 21:15:46 10° NNE
Cosmos 2278 4.3 21:06:02 10° NW 21:11:29 47° WSW 21:12:37 41° SW
Cosmos 1763 Rocket 3.8 21:10:53 42° SW 21:12:34 64° WNW 21:17:49 10° NNE
SL-16 R/B 3.3 21:10:23 10° NW 21:15:23 33° WSW 21:16:43 29° SW
COSMOS 2428 4.1 21:11:36 10° N 21:16:20 26° NE 21:17:37 24° ENE
Meteor 2-2 Rocket 4.1 21:22:13 73° SE 21:22:33 76° E 21:28:19 10° NNE
Helios 1B rocket 4.2 21:24:22 21° NNE 21:24:22 21° NNE 21:25:56 10° N
CZ-4B R/B 4.5 21:23:15 32° WSW 21:23:49 33° W 21:28:10 10° NNW
Cosmos 1726 Rocket 4.4 21:25:49 41° WNW 21:25:49 41° WNW 21:29:27 10° N
Cosmos 990 Rocket 3.8 21:20:54 10° NNW 21:26:04 87° W 21:26:04 87° W
ISS -1.1 21:25:51 10° NNW 21:28:15 18° NNE 21:28:15 18° NNE
Cosmos-2242 3.8 21:37:47 47° NNW 21:37:47 47° NNW 21:40:57 10° N
Cosmos 1536 4.3 21:34:56 10° N 21:36:59 31° N 21:36:59 31° N
Cosmos 2297 Rocket 3.6 21:46:14 26° ENE 21:46:14 26° ENE 21:49:26 10° NE
Cosmos 1092 Rocket 3.8 21:38:34 10° N 21:44:45 82° W 21:45:20 73° SSW
Cosmos 2333 Rocket 3.9 21:41:30 10° NW 21:45:39 21° W 21:46:30 20° WSW
Cosmos 841 Rocket 4.1 21:47:27 48° NE 21:47:27 48° NE 21:51:27 10° NNE
Meteor 1-14 Rocket 4.5 21:49:32 10° N 21:54:40 56° ENE 21:54:40 56° ENE
Cosmos 2360 Rocket 3.4 21:50:45 10° NW 21:55:37 30° WSW 21:55:44 30° WSW
Meteor 2-6 Rocket 4.2 21:58:28 80° WSW 21:58:40 82° W 22:04:39 10° N
Cosmos 2322 3.9 21:54:44 10° NNW 22:00:18 63° ENE 22:00:18 63° ENE
Cosmos 2221 3.9 22:03:18 33° NNE 22:03:18 33° NNE 22:05:41 10° NNE
Cosmos 372 Rocket 4.2 22:01:07 10° NNW 22:05:24 63° NNW 22:05:24 63° NNW
Cosmos 2219 Rocket 3.0 22:03:14 10° NW 22:08:05 39° W 22:08:05 39° W
SL-08 ROCKET BODY 4.3 22:07:22 10° N 22:13:34 82° W 22:13:38 82° WSW
Cosmos 2279 Rocket 4.0 22:16:40 68° WSW 22:17:02 70° W 22:23:17 10° N
ARGOS Delta rocket 4.4 22:14:09 10° NNE 22:18:32 61° NE 22:18:32 61° NE
RESURS DK-1 4.2 22:18:45 10° NNW 22:20:45 28° NNW 22:20:45 28° NNW
Meteor 1-19 Rocket 4.3 22:24:38 79° NNW 22:24:38 79° NNW 22:30:15 10° N
Aureole 1 Rocket 4.5 22:18:29 10° NNW 22:24:27 50° WSW 22:24:34 50° WSW
Cosmos 2322 Rocket 4.3 22:24:45 10° WNW 22:27:37 15° W 22:27:37 15° W
Cosmos 1937 Rocket 3.9 22:26:00 10° NNW 22:30:08 58° N 22:30:08 58° N
GP-B 4.5 22:33:30 10° N 22:36:11 36° NNE 22:36:11 36° NNE
CZ-2C R/B 3.6 22:39:09 37° ENE 22:39:09 37° ENE 22:43:44 10° N
Lacrosse 4 Rocket 3.6 22:42:43 20° NE 22:42:43 20° NE 22:44:06 10° NE
Cosmos 2237 Rocket 2.6 22:41:44 10° NNW 22:47:09 55° NE 22:47:09 55° NE
USA 234 3.1 22:42:20 10° NE 22:48:55 87° NW 22:49:36 74° WSW
Cosmos 2266 Rocket 3.9 22:44:42 10° N 22:50:26 78° NW 22:50:26 78° NW
ARIANE 5 R/B 4.2 22:52:41 31° NW 22:52:41 31° NW 22:55:18 10° NNW
Cosmos 1980 3.9 22:45:57 10° NNW 22:51:11 64° NE 22:51:11 64° NE
ALOS 2 4.1 22:54:46 32° NW 22:54:46 32° NW 22:57:20 10° NNW
Cosmos 2227 Rocket 3.0 22:55:49 42° ENE 22:55:49 42° ENE 23:00:03 10° NE
Meteor 2-4 Rocket 4.0 23:00:13 61° NE 23:00:13 61° NE 23:04:51 10° NNE
COSMOS 2428 3.5 22:55:21 10° NW 22:59:34 41° WNW 22:59:34 41° WNW
Cosmos 2263 Rocket 3.4 23:03:56 31° ENE 23:03:56 31° ENE 23:07:42 10° NE
CZ-2C R/B 3.4 23:04:00 10° N 23:09:26 75° NNW 23:09:26 75° NNW
Meteor 1-11 Rocket 4.3 23:05:35 10° NNW 23:10:10 47° WNW 23:10:10 47° WNW
Cosmos 1814 Rocket 4.4 23:21:58 59° NNE 23:21:58 59° NNE 23:26:14 10° NNE
Cosmos 1655 Rocket 3.9 23:18:03 10° N 23:24:15 88° NNW 23:24:15 88° NNW
Meteor 1-27 Rocket 4.3 23:25:50 49° WNW 23:25:50 49° WNW 23:31:12 10° N
Cosmos 2297 Rocket 3.2 23:27:59 37° WNW 23:28:25 37° WNW 23:33:39 10° N
CENTAUR R/B 4.3 23:31:16 14° E 23:31:16 14° E 23:33:44 10° ENE
Meteor 2-11 Rocket 4.4 23:25:01 10° N 23:31:09 73° E 23:31:13 72° E
Meteor 2-10 Rocket 3.8 23:27:00 10° N 23:32:13 75° NNE 23:32:13 75° NNE
Cosmos 1932 4.5 23:36:36 75° W 23:36:59 78° WNW 23:43:35 10° NNE
Cosmos 1244 Rocket 4.4 23:38:23 10° N 23:44:33 77° E 23:44:46 76° ESE
ACS3 Solar Sail 1.7 23:40:07 10° NNE 23:46:07 71° E 23:46:10 71° ESE
IDEFIX/ARIANE 42P 4.1 23:48:12 10° NE 23:52:30 26° E 23:52:42 26° E
Atlas Centaur 2 4.4 23:57:20 18° ESE 23:57:20 18° ESE 23:59:39 10° ESE
